Philadelphia Wings Airport, PA

1:35 AM EDT on October 21, 2019 (GMT -0400)
Philadelphia Wings Airport

Weather History for KLOM - September, 2019

Change the Weather History Date:

Saturday, September 21, 2019

  Actual Average (KPNE) Record (KPNE)
Temperature  
Mean Temperature 66 °F -  
Max Temperature 84 °F 73 °F 87 °F (1998)
Min Temperature 47 °F 54 °F 45 °F (1997)
Growing Degree Days 16 (Base 50)    
Moisture  
Dew Point 54 °F    
Average Humidity 74    
Maximum Humidity 100    
Minimum Humidity 35    
Precipitation  
Precipitation 0.00 in - - ()
Sea Level Pressure  
Sea Level Pressure 30.21 in    
Wind  
Wind Speed 2 mph (West)    
Max Wind Speed 7 mph    
Max Gust Speed -    
Visibility 9 miles    
Events Fog    
Averages and records for this station are not official NWS values.
T = Trace of Precipitation, MM = Missing Value Source: NWS Daily Summary

Daily Weather History Graph

Daily Weather History Graph

Search for Another Location

Airport or City:

Astronomy

Sep. 21, 2019 Rise Set
Actual Time 6:47 AM EDT 7:00 PM EDT
Civil Twilight 6:20 AM EDT 7:27 PM EDT
Nautical Twilight 5:48 AM EDT 7:59 PM EDT
Astronomical Twilight 5:16 AM EDT 8:31 PM EDT
Moon 11:35 PM EDT 1:51 PM EDT
Length of Visible Light 13h 06m
Length of Day
12h 12m
Waning Gibbous, 55% of the Moon is Illuminated
Sep 21
Waning Gibbous
Sep 21
Last Quarter
Sep 28
New
Oct 5
First Quarter
Oct 13
Full

Hourly Weather History & Observations

Time (EDT) Temp. Heat Index Dew Point Humidity Pressure Visibility Wind Dir Wind Speed Gust Speed Precip Events Conditions
12:15 AM 56.5 °F - 53.2 °F 89% 30.23 in 10.0 mi West 3.5 mph - N/A   Clear
12:35 AM 55.4 °F - 53.4 °F 93% 30.23 in 10.0 mi West 3.5 mph - N/A   Clear
12:55 AM 54.3 °F - 52.9 °F 95% 30.24 in 10.0 mi Calm Calm - N/A   Clear
1:15 AM 53.8 °F - 53.1 °F 97% 30.24 in 10.0 mi Calm Calm - N/A   Clear
1:35 AM 53.6 °F - 52.7 °F 97% 30.24 in 10.0 mi Calm Calm - N/A   Clear
1:55 AM 53.2 °F - 52.5 °F 97% 30.24 in 10.0 mi Calm Calm - N/A   Clear
2:15 AM 52.5 °F - 51.6 °F 97% 30.24 in 10.0 mi Calm Calm - N/A   Clear
2:35 AM 51.8 °F - 51.1 °F 97% 30.24 in 10.0 mi Calm Calm - N/A   Clear
2:55 AM 53.1 °F - 52.5 °F 98% 30.24 in 10.0 mi Calm Calm - N/A   Clear
3:15 AM 52.3 °F - 51.6 °F 97% 30.23 in 10.0 mi Calm Calm - N/A   Clear
3:35 AM 50.9 °F - 50.5 °F 99% 30.23 in 10.0 mi Calm Calm - N/A   Clear
3:55 AM 49.8 °F - 49.3 °F 98% 30.24 in 3.5 mi Calm Calm - N/A   Clear
4:15 AM 49.1 °F - 48.4 °F 97% 30.23 in 7.0 mi Calm Calm - N/A   Clear
4:55 AM 48.4 °F - 47.8 °F 98% 30.23 in 3.0 mi Calm Calm - N/A   Clear
5:15 AM 47.8 °F - 46.9 °F 97% 30.23 in 1.2 mi Calm Calm - N/A   Mist
5:35 AM 48.0 °F - 47.5 °F 98% 30.23 in 1.5 mi Calm Calm - N/A   Mist
5:55 AM 48.0 °F - 47.8 °F 99% 30.23 in 0.5 mi Calm Calm - N/A Fog Fog
6:15 AM 47.5 °F - 46.8 °F 97% 30.23 in 1.2 mi Calm Calm - N/A   Mist
6:35 AM 47.8 °F - 47.3 °F 98% 30.24 in 5.0 mi Calm Calm - N/A   Clear
6:55 AM 48.0 °F - 47.7 °F 99% 30.25 in 1.0 mi Calm Calm - N/A   Mist
7:15 AM 49.3 °F - 49.3 °F 100% 30.25 in 0.2 mi Calm Calm - N/A Fog Fog
7:35 AM 52.2 °F - 52.2 °F 100% 30.25 in 5.0 mi Calm Calm - N/A   Clear
7:55 AM 56.7 °F - 55.6 °F 96% 30.24 in 10.0 mi Calm Calm - N/A   Clear
8:15 AM 59.7 °F - 56.7 °F 90% 30.24 in 10.0 mi Calm Calm - N/A   Clear
8:35 AM 61.9 °F - 56.8 °F 84% 30.25 in 10.0 mi Calm Calm - N/A   Clear
8:55 AM 63.7 °F - 56.8 °F 78% 30.25 in 10.0 mi Calm Calm - N/A   Clear
9:15 AM 65.5 °F - 56.5 °F 73% 30.25 in 10.0 mi WNW 5.8 mph - N/A   Clear
9:35 AM 67.8 °F - 56.8 °F 68% 30.25 in 10.0 mi WSW 4.6 mph - N/A   Clear
9:55 AM 69.6 °F - 57.0 °F 64% 30.26 in 10.0 mi WNW 4.6 mph - N/A   Clear
10:15 AM 72.1 °F - 57.6 °F 60% 30.26 in 10.0 mi Calm Calm - N/A   Clear
10:35 AM 74.3 °F - 57.7 °F 56% 30.25 in 10.0 mi Calm Calm - N/A   Clear
10:55 AM 75.9 °F - 56.8 °F 51% 30.25 in 10.0 mi NW 5.8 mph - N/A   Clear
11:15 AM 76.6 °F - 55.6 °F 48% 30.25 in 10.0 mi NW 5.8 mph - N/A   Clear
11:35 AM 78.6 °F - 56.3 °F 46% 30.25 in 10.0 mi WNW 3.5 mph - N/A   Clear
11:55 AM 79.3 °F - 55.6 °F 44% 30.24 in 10.0 mi WNW 3.5 mph - N/A   Clear
12:15 PM 80.1 °F 80.3 °F 56.5 °F 44% 30.23 in 10.0 mi West 5.8 mph - N/A   Clear
12:35 PM 81.0 °F 80.8 °F 55.9 °F 42% 30.23 in 10.0 mi West 4.6 mph - N/A   Clear
12:55 PM 81.5 °F 81.1 °F 55.4 °F 41% 30.22 in 10.0 mi West 5.8 mph - N/A   Clear
1:15 PM 81.0 °F 80.5 °F 54.1 °F 39% 30.21 in 10.0 mi Calm Calm - N/A   Clear
1:35 PM 81.9 °F 81.3 °F 55.0 °F 40% 30.21 in 10.0 mi NNW 5.8 mph - N/A   Clear
1:55 PM 82.8 °F 81.7 °F 54.3 °F 37% 30.20 in 10.0 mi SW 3.5 mph - N/A   Clear
2:15 PM 83.5 °F 82.4 °F 54.9 °F 37% 30.20 in 10.0 mi SSW 5.8 mph - N/A   Clear
2:35 PM 83.5 °F 82.2 °F 54.1 °F 36% 30.19 in 10.0 mi South 5.8 mph - N/A   Clear
2:55 PM 83.5 °F 82.4 °F 54.5 °F 37% 30.18 in 10.0 mi Calm Calm - N/A   Clear
3:15 PM 82.9 °F 81.9 °F 54.3 °F 37% 30.18 in 10.0 mi Calm Calm - N/A   Clear
3:35 PM 84.0 °F 82.6 °F 53.6 °F 35% 30.17 in 10.0 mi SSW 5.8 mph - N/A   Clear
3:55 PM 84.2 °F 82.9 °F 54.9 °F 36% 30.17 in 10.0 mi WNW 4.6 mph - N/A   Clear
4:15 PM 83.7 °F 82.3 °F 53.6 °F 35% 30.17 in 10.0 mi West 4.6 mph - N/A   Clear
4:35 PM 83.3 °F 82.1 °F 53.4 °F 36% 30.17 in 10.0 mi WSW 6.9 mph - N/A   Clear
4:55 PM 83.7 °F 82.4 °F 54.3 °F 36% 30.17 in 10.0 mi SW 6.9 mph - N/A   Clear
5:15 PM 82.8 °F 81.6 °F 53.4 °F 36% 30.17 in 10.0 mi SSE 3.5 mph - N/A   Clear
5:35 PM 82.8 °F - 52.7 °F 35% 30.17 in 10.0 mi WSW 3.5 mph - N/A   Clear
5:55 PM 81.7 °F 80.9 °F 53.2 °F 37% 30.17 in 10.0 mi Calm Calm - N/A   Clear
6:15 PM 78.8 °F - 55.2 °F 44% 30.17 in 10.0 mi West 3.5 mph - N/A   Clear
6:35 PM 74.3 °F - 56.8 °F 54% 30.17 in 10.0 mi West 3.5 mph - N/A   Clear
6:55 PM 67.5 °F - 60.3 °F 78% 30.17 in 10.0 mi Calm Calm - N/A   Clear
7:15 PM 63.9 °F - 59.4 °F 85% 30.17 in 10.0 mi Calm Calm - N/A   Clear
7:35 PM 62.4 °F - 58.6 °F 87% 30.17 in 10.0 mi Calm Calm - N/A   Clear
7:55 PM 61.5 °F - 58.3 °F 89% 30.18 in 10.0 mi Calm Calm - N/A   Clear
8:15 PM 60.1 °F - 57.6 °F 91% 30.18 in 10.0 mi Calm Calm - N/A   Clear
8:35 PM 58.5 °F - 55.6 °F 90% 30.18 in 10.0 mi Calm Calm - N/A   Clear
8:55 PM 58.6 °F - 56.7 °F 93% 30.18 in 10.0 mi Calm Calm - N/A   Clear
9:15 PM 58.3 °F - 55.8 °F 91% 30.19 in 10.0 mi Calm Calm - N/A   Clear
9:35 PM 57.2 °F - 55.2 °F 93% 30.19 in 10.0 mi Calm Calm - N/A   Clear
9:55 PM 57.6 °F - 55.2 °F 92% 30.20 in 10.0 mi Calm Calm - N/A   Clear
10:15 PM 57.4 °F - 55.8 °F 94% 30.20 in 10.0 mi Calm Calm - N/A   Clear
10:35 PM 57.9 °F - 56.3 °F 94% 30.20 in 10.0 mi Calm Calm - N/A   Clear
10:55 PM 56.1 °F - 55.2 °F 97% 30.20 in 10.0 mi Calm Calm - N/A   Clear
11:15 PM 55.8 °F - 54.7 °F 96% 30.21 in 10.0 mi Calm Calm - N/A   Clear
11:35 PM 55.9 °F - 54.7 °F 96% 30.20 in 10.0 mi Calm Calm - N/A   Clear
11:55 PM 55.2 °F - 54.0 °F 96% 30.20 in 10.0 mi Calm Calm - N/A   Clear